Weather in Alkho

Russia / Republic of Karelia     61°19′08″N   29°43′24″E
temp.,
°C
wind,
m/s
gust,
m/s
humid.,
%
clouds,
%
prec.,
mm/h
press.,
hPa
HPBL,
m
28 february, sun
sun2800:00−3sw2294100 0.0 101751
03:00−2wsw3896100 0.1 1015328
06:00−1wsw3897100 1.4 1011300
09:00+2wnw2899100 1.4 1012296
12:00+2nw27100100 0.1 1013333
15:00+2nw3710096 0.1 1016371
18:00+1wnw279677 0.0 1017236
21:000w239680 0.0 101893
1 march, mon
mon100:000w359685 0.0 1019264
03:00+1w499893 0.0 1019406
06:000w4119395 0.0 1017387
09:00+1w5139096 0.0 1016528
12:00+3w51389100 0.0 1014611
15:00+4w51385100 0.0 1013844
18:00+2w51486100 0.0 1011760
21:00+2wnw51386100 0.0 1011867
2 march, tue
tue200:000wnw4138533 0.0 1011547
03:00−1w4118817 0.0 1011367
06:00−1w411900 0.0 1009414
09:00−1wnw4119216 0.0 1009494
12:00+1nw5128111 0.0 1010756
15:00+2nw613725 0.0 10121232
18:00+1nw514680 0.0 1014939
21:00−1nw311840 0.0 1017395
3 march, wed
wed300:00−2wnw39880 0.0 1017313
03:00−2w410890 0.0 1017367
06:00−2wnw411890 0.0 1016394
09:00−3w410910 0.0 1015409
12:000w4108517 0.0 1013505
15:00+1w5128358 0.0 1010701
18:00+1wsw61492100 0.5 1005914
21:00+2w61490100 0.7 1000936
4 march, thu
thu400:00+1wnw7148582 0.3 997907
03:00−2wnw6147272 0.3 996982
06:00−3nw8177981 0.0 9971384
09:00−4nnw7127990 0.2 10001132
12:00−4nnw61074100 0.0 10031018
15:00−4nw61073100 0.1 1005983
18:00−6nw51177100 0.0 1005895
21:00−7nnw4108199 0.0 1006798